Location: Ermatingen
(47.6706°N, 9.0857°E)
Time: 08:07:55
(UTC+00:00)

Cosmos 1428 Rocket - Pass Details

Date: 28 November 2021
Orbit: 949 x 987 km, 82.9° (Epoch: 26 January)

Event Time Altitude Azimuth Distance (km) Brightness Sun altitude
Rises 05:28:18 0° 150° (SSE) 3,642 8.3 -12.9°
Reaches altitude 10° 05:31:11 10° 138° (SE) 2,694 7.8 -12.4°
Maximum altitude 05:36:09 26° 84° (E) 1,779 6.7 -11.7°
Drops below altitude 10° 05:41:06 10° 30° (NNE) 2,691 6.9 -10.9°
Sets 05:43:58 0° 19° (NNE) 3,638 7.5 -10.4°
